This demonstration page uses our WeatherBlox Daily Observations layout. Learn more.

38.88101, -77.10428

Hourly Observations for June 25, 2016

Temp ( °F °C ) Dew Point ( °F °C ) Humidity (%) Winds ( mph kmh ) Pressure ( in mb ) Visibility ( mi km ) Precip ( " mm )
12:52 am 00:52 Cloudy 72 22.2 66 18.9 82 82 E 9 15 30.08 1019 10 16.0934 0 0
1:52 am 01:52 Cloudy 72 22.2 65 18.3 79 79 E 7 11 30.08 1019 10 16.0934 0 0
2:52 am 02:52 Cloudy 72 22.2 65 18.3 79 79 ENE 7 11 30.08 1019 10 16.0934 0 0
3:52 am 03:52 Cloudy 72 22.2 65 18.3 79 79 NNE 10 17 30.08 1019 10 16.0934 0 0
4:52 am 04:52 Cloudy 72 22.2 65 18.3 79 79 NE 10 17 30.1 1019 10 16.0934 0 0
5:52 am 05:52 Cloudy 72 22.2 65 18.3 79 79 NNE 10 17 30.12 1020 10 16.0934 0 0
6:52 am 06:52 Cloudy 72 22.2 65 18.3 79 79 ENE 9 15 30.13 1020 10 16.0934 0 0
7:52 am 07:52 Cloudy 73 22.8 66 18.9 79 79 NNE 10 17 30.15 1021 10 16.0934 0 0
8:06 am 08:06 Mostly Cloudy 73 22.8 66 18.9 79 79 NE 10 17 30.15 1021 10 16.0934 0 0
8:13 am 08:13 Mostly Cloudy 72 22.2 65 18.3 79 79 NE 8 13 30.15 1021 10 16.0934 0 0
8:39 am 08:39 Partly Cloudy 74 23.3 65 18.3 74 74 NE 9 15 30.15 1021 10 16.0934 0 0
8:52 am 08:52 Mostly Cloudy 75 23.9 65 18.3 71 71 NE 9 15 30.16 1022 10 16.0934 0 0
9:52 am 09:52 Mostly Cloudy 77 25 65 18.3 66 66 NNE 6 9 30.18 1022 10 16.0934 0 0
10:52 am 10:52 Sunny 79 26.1 62 16.7 56 56 NE 7 11 30.19 1022 10 16.0934 0 0
11:52 am 11:52 Mostly Sunny 81 27.2 63 17.2 54 54 ENE 5 7 30.19 1022 10 16.0934 0 0
12:52 pm 12:52 Partly Cloudy 83 28.3 60 15.6 46 46 E 8 13 30.18 1022 10 16.0934 0 0
1:52 pm 13:52 Mostly Sunny 83 28.3 59 15 44 44 ENE 12 19 30.17 1022 10 16.0934 0 0
2:52 pm 14:52 Mostly Sunny 84 28.9 57 13.9 40 40 ENE 10 17 30.18 1022 10 16.0934 0 0
3:52 pm 15:52 Mostly Sunny 83 28.3 58 14.4 43 43 SSE 6 9 30.17 1022 10 16.0934 0 0
4:52 pm 16:52 Mostly Sunny 83 28.3 59 15 44 44 VRB 5 7 30.16 1022 10 16.0934 0 0
5:52 pm 17:52 Mostly Sunny 83 28.3 61 16.1 48 48 VRB 7 11 30.16 1022 10 16.0934 0 0
6:52 pm 18:52 Partly Cloudy 82 27.8 59 15 46 46 SE 9 15 30.17 1022 10 16.0934 0 0
7:52 pm 19:52 Partly Cloudy 80 26.7 58 14.4 47 47 E 8 13 30.17 1022 10 16.0934 0 0
8:52 pm 20:52 Mostly Clear 78 25.6 59 15 52 52 SE 6 9 30.19 1023 10 16.0934 0 0
9:52 pm 21:52 Clear 76 24.4 61 16.1 60 60 SE 6 9 30.19 1023 10 16.0934 0 0
10:52 pm 22:52 Clear 74 23.3 59 15 60 60 SSE 7 11 30.2 1023 10 16.0934 0 0
11:52 pm 23:52 Clear 73 22.8 58 14.4 59 59 SSE 7 11 30.2 1023 10 16.0934 0 0

Powered by AerisWeather